DW3706 Winthrop MA US current weather conditions

sailwx.info

Wind from 100 at 5 knots gusting 10

Air temperature 21.1° C
Dewpoint 20.1° C

Last reported at 2020-Jul-10 22:05 UTC.
Time now 2020-Jul-10 22:40 UTC

Location: N 42°23' W 070°58'.
View on Google Maps.

See reports from other nearby stations

  
Tides and Currents Weather Stations Pressure Air Temp Water Temp Dewpoint Dewpoint Depression Visibility Wind Speed Wind Dir Waves Ship Positions
date/time (UTC)wind fromknots sea level pressurealtimeterstation pressurevisibilityair tempwater tempwave heightnotes
2020-Jul-10 22:05 100 5 gusting 10 21.1
2020-Jul-10 22:01 094 2 gusting 10 21.1
2020-Jul-10 21:55 101 5 gusting 9 21.1
2020-Jul-10 21:50 104 3 gusting 12 21.1
2020-Jul-10 21:47 082 5 gusting 9 21.1
2020-Jul-10 21:40 077 4 gusting 9 21.1
2020-Jul-10 21:35 110 5 gusting 9 21.1
2020-Jul-10 21:31 082 5 gusting 9 21.1
2020-Jul-10 21:25 075 4 gusting 8 21.1
2020-Jul-10 21:20 092 4 gusting 11 21.1
2020-Jul-10 21:16 072 6 gusting 13 21.1
2020-Jul-10 21:10 085 8 gusting 13 21.1
2020-Jul-10 21:05 083 7 gusting 12 21.1
2020-Jul-10 21:01 109 6 gusting 13 21.1
2020-Jul-10 20:55 087 9 gusting 13 21.1
2020-Jul-10 20:50 071 9 gusting 13 21.1
2020-Jul-10 20:45 079 7 gusting 10 21.1
2020-Jul-10 20:41 079 6 gusting 9 21.1
2020-Jul-10 20:35 086 6 gusting 11 21.1
2020-Jul-10 20:30 085 7 gusting 11 21.1
2020-Jul-10 20:25 087 8 gusting 12 21.1
2020-Jul-10 20:20 071 8 gusting 12 21.1
2020-Jul-10 20:16 084 8 gusting 12 21.7
2020-Jul-10 20:10 071 8 gusting 12 21.7
2020-Jul-10 20:05 056 7 gusting 13 21.7
2020-Jul-10 20:00 060 7 gusting 13 21.7
2020-Jul-10 19:55 065 7 gusting 12 21.7
2020-Jul-10 19:50 076 7 gusting 12 21.7
2020-Jul-10 19:46 063 7 gusting 12 21.7
2020-Jul-10 19:40 083 6 gusting 10 21.7
2020-Jul-10 19:35 084 6 gusting 12 21.7
2020-Jul-10 19:31 064 7 gusting 12 21.7
2020-Jul-10 19:25 075 6 gusting 11 21.7
2020-Jul-10 19:20 065 7 gusting 13 21.7
2020-Jul-10 19:16 075 6 gusting 13 21.7
2020-Jul-10 19:10 071 6 gusting 11 21.7
2020-Jul-10 19:05 071 6 gusting 11 21.7
2020-Jul-10 19:00 073 7 gusting 12 21.7
2020-Jul-10 18:55 059 8 gusting 13 21.7
2020-Jul-10 18:50 055 9 gusting 13 22.2
2020-Jul-10 18:46 067 9 gusting 13 22.2
2020-Jul-10 18:40 081 9 gusting 12 21.7
2020-Jul-10 18:35 065 9 gusting 12 22.2
2020-Jul-10 18:30 054 6 gusting 12 21.7
2020-Jul-10 18:25 050 7 gusting 12 21.7
2020-Jul-10 18:20 069 6 gusting 12 21.7
2020-Jul-10 18:16 058 6 gusting 12 21.7
2020-Jul-10 18:10 060 7 gusting 13 21.7
2020-Jul-10 18:05 059 9 gusting 13 21.7
2020-Jul-10 18:00 060 9 gusting 13 21.7
2020-Jul-10 17:55 057 8 gusting 13 21.7
2020-Jul-10 17:50 073 9 gusting 13 21.7
2020-Jul-10 17:45 066 8 gusting 12 21.7
2020-Jul-10 17:40 068 7 gusting 13 21.7
2020-Jul-10 17:35 079 8 gusting 13 21.7
2020-Jul-10 17:30 068 10 gusting 13 21.7
2020-Jul-10 17:25 082 10 gusting 13 22.2
2020-Jul-10 17:20 069 9 gusting 15 22.2
2020-Jul-10 17:15 085 11 gusting 15 22.2
2020-Jul-10 17:10 071 9 gusting 14 22.2
2020-Jul-10 17:05 076 7 gusting 13 22.8
2020-Jul-10 17:00 081 9 gusting 14 22.8
2020-Jul-10 16:55 077 9 gusting 14 22.8
2020-Jul-10 16:50 083 10 gusting 13 23.3
2020-Jul-10 16:45 079 10 gusting 13 23.3
2020-Jul-10 16:40 080 6 gusting 10 23.3
2020-Jul-10 16:35 090 4 gusting 9 23.3
2020-Jul-10 16:30 073 3 gusting 6 23.3
2020-Jul-10 16:25 069 5 gusting 6 23.3
2020-Jul-10 16:20 075 5 gusting 6 23.3
2020-Jul-10 16:10 072 2 gusting 6 23.9
2020-Jul-10 16:05 071 3 gusting 7 23.9
2020-Jul-10 15:55 067 6 gusting 6 23.9
2020-Jul-10 15:50 069 3 gusting 6 23.9
2020-Jul-10 15:40 069 2 gusting 6 23.3
2020-Jul-10 15:35 073 2 gusting 6 23.3
2020-Jul-10 15:25 079 4 gusting 6 22.8
2020-Jul-10 15:20 083 2 gusting 6 22.8
2020-Jul-10 15:15 086 4 gusting 6 22.8
2020-Jul-10 15:05 080 4 gusting 5 22.2
2020-Jul-10 15:00 080 3 gusting 5 22.2
2020-Jul-10 14:55 081 1 gusting 5 22.2
2020-Jul-10 14:50 078 0 gusting 6 22.2
2020-Jul-10 14:45 078 2 gusting 6 22.2
2020-Jul-10 14:40 083 4 gusting 6 22.2
2020-Jul-10 14:35 082 4 gusting 6 22.2
2020-Jul-10 14:25 092 2 gusting 4 21.7
2020-Jul-10 14:20 098 0 gusting 4 21.7
2020-Jul-10 14:15 099 0 gusting 5 21.7
2020-Jul-10 14:10 092 2 gusting 5 22.2
2020-Jul-10 14:05 098 2 gusting 5 22.2
2020-Jul-10 13:56 082 1 gusting 6 22.2
2020-Jul-10 13:55 075 2 gusting 6 22.2
2020-Jul-10 13:46 090 3 gusting 5 22.2
2020-Jul-10 13:41 116 22.2
2020-Jul-10 13:36 116 0 gusting 4 22.2
2020-Jul-10 13:31 116 0 gusting 4 22.2
2020-Jul-10 13:25 117 2 gusting 4 22.2
2020-Jul-10 13:20 119 0 gusting 3 22.2
2020-Jul-10 13:16 118 1 gusting 4 22.2
2020-Jul-10 13:11 119 1 gusting 5 22.2
2020-Jul-10 13:05 119 1 gusting 5 22.2
2020-Jul-10 13:01 118 0 gusting 2 22.8
2020-Jul-10 12:55 118 22.8
2020-Jul-10 12:51 118 0 gusting 3 22.8
2020-Jul-10 12:47 118 1 gusting 4 22.8
2020-Jul-10 12:40 117 1 gusting 4 22.8
2020-Jul-10 12:35 112 0 gusting 3 22.8
2020-Jul-10 12:32 117 1 gusting 3 22.8
2020-Jul-10 12:25 120 1 gusting 3 22.8
2020-Jul-10 12:20 126 1 gusting 3 22.8
2020-Jul-10 12:16 206 22.8
2020-Jul-10 12:10 206 22.8
2020-Jul-10 12:05 219 22.8
2020-Jul-10 12:01 219 0 gusting 2 22.8
2020-Jul-10 11:55 219 1 gusting 4 22.8
2020-Jul-10 11:50 219 0 gusting 4 22.8
2020-Jul-10 11:45 219 0 gusting 5 22.8
2020-Jul-10 11:40 219 22.8
2020-Jul-10 11:35 223 1 gusting 5 22.8
2020-Jul-10 11:31 213 1 gusting 6 22.8
2020-Jul-10 11:25 196 2 gusting 6 22.2
2020-Jul-10 11:21 186 3 gusting 6 22.2
2020-Jul-10 11:16 201 3 gusting 6 22.2
2020-Jul-10 11:10 206 2 gusting 7 22.2
2020-Jul-10 11:05 204 4 gusting 7 22.2
2020-Jul-10 11:01 209 3 gusting 6 22.2
2020-Jul-10 10:55 215 4 gusting 6 22.2
2020-Jul-10 10:50 222 3 gusting 6 22.2
2020-Jul-10 10:46 214 3 gusting 6 22.2
2020-Jul-10 10:40 236 3 gusting 6 22.2
2020-Jul-10 10:35 217 3 gusting 6 22.2
2020-Jul-10 10:31 200 3 gusting 6 22.2
2020-Jul-10 10:25 213 2 gusting 4 22.2
2020-Jul-10 10:20 214 2 gusting 4 22.2
2020-Jul-10 10:15 190 2 gusting 4 22.2
2020-Jul-10 10:10 220 1 gusting 5 22.2
2020-Jul-10 10:05 220 2 gusting 6 22.2
2020-Jul-10 10:01 225 2 gusting 6 22.2
2020-Jul-10 09:55 218 3 gusting 6 22.2
2020-Jul-10 09:50 225 3 gusting 6 22.2
2020-Jul-10 09:45 208 3 gusting 6 22.2
2020-Jul-10 09:40 221 3 gusting 6 22.2
2020-Jul-10 09:35 223 3 gusting 6 22.2
2020-Jul-10 09:31 229 4 gusting 6 22.2
2020-Jul-10 09:25 204 3 gusting 6 22.2
2020-Jul-10 09:20 219 2 gusting 6 22.2
2020-Jul-10 09:16 223 3 gusting 6 22.2
2020-Jul-10 09:10 204 3 gusting 6 22.2
2020-Jul-10 09:05 227 3 gusting 6 22.2
2020-Jul-10 09:00 208 1 gusting 6 22.2
2020-Jul-10 08:55 201 2 gusting 6 22.2
2020-Jul-10 08:50 212 3 gusting 6 22.2
2020-Jul-10 08:45 206 3 gusting 6 22.2
2020-Jul-10 08:40 208 2 gusting 6 22.2
2020-Jul-10 08:35 223 0 gusting 3 22.2
2020-Jul-10 08:31 221 1 gusting 4 22.2
2020-Jul-10 08:25 221 0 gusting 6 22.2
2020-Jul-10 08:20 221 1 gusting 6 22.2
2020-Jul-10 08:15 227 2 gusting 6 22.2
2020-Jul-10 08:10 213 3 gusting 5 22.2
2020-Jul-10 08:05 227 2 gusting 5 22.2
2020-Jul-10 08:01 230 1 gusting 6 22.2
2020-Jul-10 07:55 223 3 gusting 5 22.2
2020-Jul-10 07:50 223 2 gusting 6 22.2
2020-Jul-10 07:45 220 2 gusting 5 22.2
2020-Jul-10 07:40 217 2 gusting 5 22.2
2020-Jul-10 07:35 233 2 gusting 4 22.2
2020-Jul-10 07:30 219 1 gusting 4 22.8
2020-Jul-10 07:25 204 2 gusting 5 22.8
2020-Jul-10 07:20 204 2 gusting 6 22.8
2020-Jul-10 07:15 202 2 gusting 6 22.8
2020-Jul-10 07:10 225 2 gusting 5 22.8
2020-Jul-10 07:05 219 2 gusting 6 22.8
2020-Jul-10 07:00 221 3 gusting 7 22.8
2020-Jul-10 06:55 211 3 gusting 7 22.8
2020-Jul-10 06:50 221 4 gusting 6 22.8
2020-Jul-10 06:45 214 3 gusting 6 22.8
2020-Jul-10 06:40 211 3 gusting 6 22.8
2020-Jul-10 06:35 219 2 gusting 6 22.8
2020-Jul-10 06:31 214 2 gusting 6 22.8
2020-Jul-10 06:25 227 4 gusting 6 22.8
2020-Jul-10 06:20 235 5 gusting 7 22.8
2020-Jul-10 06:10 216 4 gusting 6 22.8
2020-Jul-10 06:05 208 4 gusting 7 22.8
2020-Jul-10 06:00 217 3 gusting 6 22.8
2020-Jul-10 05:55 209 3 gusting 6 22.8
2020-Jul-10 05:45 219 4 gusting 8 23.3
2020-Jul-10 05:40 200 5 gusting 8 23.3
2020-Jul-10 05:30 215 4 gusting 7 23.3
2020-Jul-10 05:25 219 5 gusting 7 23.3
2020-Jul-10 05:15 217 4 gusting 8 23.3
2020-Jul-10 05:10 218 4 gusting 7 23.3
2020-Jul-10 05:05 219 4 gusting 6 23.3
2020-Jul-10 04:55 218 3 gusting 6 23.3
2020-Jul-10 04:50 217 4 gusting 7 23.3
2020-Jul-10 04:45 209 4 gusting 8 23.3
2020-Jul-10 04:40 200 3 gusting 6 23.9
2020-Jul-10 04:35 215 4 gusting 7 23.9
2020-Jul-10 04:30 219 5 gusting 7 23.9
2020-Jul-10 04:21 218 4 gusting 7 23.9
2020-Jul-10 04:17 234 4 gusting 6 23.9
2020-Jul-10 04:10 224 4 gusting 6 23.9
2020-Jul-10 04:06 224 3 gusting 7 23.9
2020-Jul-10 04:01 235 4 gusting 7 23.9
2020-Jul-10 03:55 225 4 gusting 7 23.9
2020-Jul-10 03:52 219 6 gusting 7 23.9
2020-Jul-10 03:49 215 4 gusting 7 23.9
2020-Jul-10 03:41 221 3 gusting 7 23.9
2020-Jul-10 03:36 235 3 gusting 7 23.9
2020-Jul-10 03:31 197 4 gusting 7 24.4
2020-Jul-10 03:26 200 4 gusting 7 24.4
2020-Jul-10 03:20 217 4 gusting 7 24.4
2020-Jul-10 03:16 215 4 gusting 6 24.4
2020-Jul-10 03:10 215 4 gusting 9 24.4
2020-Jul-10 03:05 219 6 gusting 9 24.4
2020-Jul-10 03:01 227 5 gusting 7 24.4
2020-Jul-10 02:55 232 3 gusting 8 24.4
2020-Jul-10 02:50 216 6 gusting 8 24.4
2020-Jul-10 02:46 201 5 gusting 9 24.4
2020-Jul-10 02:40 229 5 gusting 9 25.0
2020-Jul-10 02:36 212 5 gusting 8 25.0
2020-Jul-10 02:31 221 6 gusting 8 25.0
2020-Jul-10 02:26 231 6 gusting 8 25.0
2020-Jul-10 02:21 234 5 gusting 8 25.0
2020-Jul-10 02:17 242 5 gusting 7 25.0
2020-Jul-10 02:10 228 5 gusting 7 25.0
2020-Jul-10 02:05 231 5 gusting 8 25.0
2020-Jul-10 02:02 229 4 gusting 8 25.0
2020-Jul-10 01:56 220 3 gusting 8 25.0
2020-Jul-10 01:50 217 3 gusting 6 25.6
2020-Jul-10 01:46 214 4 gusting 6 25.6
2020-Jul-10 01:40 217 4 gusting 7 25.6
2020-Jul-10 01:35 222 3 gusting 7 25.6
2020-Jul-10 01:31 229 4 gusting 7 25.6
2020-Jul-10 01:25 204 4 gusting 7 25.6
2020-Jul-10 01:20 202 5 gusting 8 25.6
2020-Jul-10 01:16 222 4 gusting 8 26.1
2020-Jul-10 01:10 227 4 gusting 8 26.1
2020-Jul-10 01:05 239 5 gusting 7 26.1
2020-Jul-10 01:01 201 4 gusting 9 26.1
2020-Jul-10 00:56 217 4 gusting 9 26.1
2020-Jul-10 00:50 219 3 gusting 8 26.1
2020-Jul-10 00:46 215 4 gusting 8 26.1
2020-Jul-10 00:40 218 3 gusting 7 26.1
2020-Jul-10 00:35 209 4 gusting 7 26.1
2020-Jul-10 00:30 236 4 gusting 8 26.7
2020-Jul-10 00:25 229 3 gusting 8 26.7
2020-Jul-10 00:20 219 5 gusting 8 26.7
2020-Jul-10 00:16 202 3 gusting 6 26.7
2020-Jul-10 00:10 222 3 gusting 8 26.7
2020-Jul-10 00:06 198 5 gusting 9 26.7
2020-Jul-10 00:01 201 6 gusting 11 26.7
2020-Jul-09 23:55 199 6 gusting 14 26.7
2020-Jul-09 23:50 220 7 gusting 14 27.2
2020-Jul-09 23:47 184 6 gusting 12 27.2
2020-Jul-09 23:41 217 8 gusting 12 27.2
2020-Jul-09 23:35 221 7 gusting 11 27.2
2020-Jul-09 23:31 217 6 gusting 10 27.2
2020-Jul-09 23:25 194 6 gusting 11 27.2
2020-Jul-09 23:20 175 6 gusting 13 27.2
2020-Jul-09 23:16 184 6 gusting 9 27.8
2020-Jul-09 23:10 215 6 gusting 10 27.8
2020-Jul-09 23:05 199 6 gusting 12 27.8
2020-Jul-09 23:00 215 6 gusting 12 27.8
2020-Jul-09 22:55 199 6 gusting 10 27.8
2020-Jul-09 22:50 214 6 gusting 12 27.8
2020-Jul-09 22:46 192 6 gusting 12 27.2
2020-Jul-09 22:40 184 6 gusting 12 27.2
2020-Jul-09 22:35 185 6 gusting 11 26.7
2020-Jul-09 22:31 187 4 gusting 8 26.1
2020-Jul-09 22:26 180 2 gusting 6 25.6
2020-Jul-09 22:20 097 25.6
2020-Jul-09 22:16 097 0 gusting 3 25.6
2020-Jul-09 22:10 097 0 gusting 3 25.6
2020-Jul-09 22:05 097 0 gusting 3 25.0
2020-Jul-09 22:00 097 0 gusting 4 25.0
2020-Jul-09 21:55 097 0 gusting 4 25.0
2020-Jul-09 21:50 097 2 gusting 5 25.0
2020-Jul-09 21:46 098 2 gusting 6 25.0
2020-Jul-09 21:40 100 4 gusting 6 25.0
2020-Jul-09 21:35 087 3 gusting 7 25.0
2020-Jul-09 21:30 096 4 gusting 7 25.0
2020-Jul-09 21:25 123 4 gusting 7 25.0
2020-Jul-09 21:16 115 3 gusting 7 24.4
2020-Jul-09 21:10 110 4 gusting 7 24.4
2020-Jul-09 21:05 108 1 gusting 8 24.4
2020-Jul-09 21:01 104 4 gusting 8 24.4
2020-Jul-09 20:55 105 4 gusting 7 24.4
2020-Jul-09 20:50 102 4 gusting 6 24.4
2020-Jul-09 20:47 107 3 gusting 6 24.4
2020-Jul-09 20:40 091 2 gusting 6 24.4
2020-Jul-09 20:35 084 3 gusting 6 24.4
2020-Jul-09 20:31 068 3 gusting 6 24.4
2020-Jul-09 20:25 061 3 gusting 6 24.4
2020-Jul-09 20:20 067 3 gusting 6 24.4
2020-Jul-09 20:15 065 3 gusting 5 24.4
2020-Jul-09 20:10 060 1 gusting 5 25.0
2020-Jul-09 20:05 060 2 gusting 4 25.0
2020-Jul-09 20:01 058 1 gusting 4 25.0
2020-Jul-09 19:55 058 2 gusting 4 25.0
2020-Jul-09 19:50 059 2 gusting 5 25.0
2020-Jul-09 19:45 060 2 gusting 5 25.0
2020-Jul-09 19:40 065 1 gusting 6 25.0
2020-Jul-09 19:36 066 2 gusting 6 25.0
2020-Jul-09 19:30 069 3 gusting 6 25.0
2020-Jul-09 19:25 077 2 gusting 6 25.0
2020-Jul-09 19:20 073 4 gusting 6 25.0
2020-Jul-09 19:15 058 3 gusting 6 25.0
2020-Jul-09 19:10 041 3 gusting 5 25.0
2020-Jul-09 19:05 048 2 gusting 6 25.0
2020-Jul-09 19:01 074 2 gusting 6 25.0
2020-Jul-09 18:55 072 3 gusting 6 25.0
2020-Jul-09 18:51 069 2 gusting 7 25.0
2020-Jul-09 18:45 083 2 gusting 7 25.0
2020-Jul-09 18:40 094 2 gusting 6 25.0
2020-Jul-09 18:35 110 2 gusting 7 25.0
2020-Jul-09 18:30 081 2 gusting 7 25.0
2020-Jul-09 18:25 079 3 gusting 6 25.0
2020-Jul-09 18:20 093 2 gusting 6 25.0
2020-Jul-09 18:15 087 3 gusting 6 25.0
2020-Jul-09 18:10 089 2 gusting 8 25.6
2020-Jul-09 18:05 107 5 gusting 8 25.6
2020-Jul-09 18:01 112 6 gusting 8 25.0
2020-Jul-09 17:55 101 2 gusting 6 25.0
2020-Jul-09 17:50 108 3 gusting 6 25.6
2020-Jul-09 17:46 100 3 gusting 6 25.6
2020-Jul-09 17:40 085 4 gusting 6 25.6
2020-Jul-09 17:35 089 2 gusting 6 25.6
2020-Jul-09 17:31 111 2 gusting 9 26.1
2020-Jul-09 17:25 107 5 gusting 9 26.7
2020-Jul-09 17:20 125 4 gusting 10 26.1
2020-Jul-09 17:15 104 5 gusting 10 26.1
2020-Jul-09 17:10 105 5 gusting 12 26.1
2020-Jul-09 17:05 109 7 gusting 12 26.1
2020-Jul-09 17:00 101 5 gusting 9 26.1
2020-Jul-09 16:55 100 6 gusting 9 26.1
2020-Jul-09 16:50 094 4 gusting 9 26.1
2020-Jul-09 16:46 094 3 gusting 9 26.1
2020-Jul-09 16:40 075 6 gusting 9 26.7
2020-Jul-09 16:35 079 6 gusting 8 27.2
2020-Jul-09 16:31 084 5 gusting 9 27.2
2020-Jul-09 16:25 077 6 gusting 9 27.2
2020-Jul-09 16:20 084 6 gusting 9 27.2
2020-Jul-09 16:15 085 6 gusting 8 27.2
2020-Jul-09 16:10 077 6 gusting 8 27.2
2020-Jul-09 16:05 079 6 gusting 8 26.7
2020-Jul-09 16:00 076 6 gusting 8 26.7
2020-Jul-09 15:55 077 4 gusting 7 26.7
2020-Jul-09 15:50 081 5 gusting 7 26.7
2020-Jul-09 15:45 077 4 gusting 6 26.7
2020-Jul-09 15:40 087 3 gusting 6 27.2
2020-Jul-09 15:35 089 1 gusting 5 27.2
2020-Jul-09 15:31 092 1 gusting 6 27.2
2020-Jul-09 15:25 093 2 gusting 6 27.8
2020-Jul-09 15:20 092 1 gusting 6 27.8
2020-Jul-09 15:15 121 1 gusting 6 27.8
2020-Jul-09 15:10 099 4 gusting 6 28.3
2020-Jul-09 15:05 085 3 gusting 6 29.4
2020-Jul-09 15:01 183 1 gusting 6 30.0
2020-Jul-09 14:55 183 2 gusting 6 29.4
2020-Jul-09 14:50 200 2 gusting 6 29.4
2020-Jul-09 14:45 183 3 gusting 6 29.4
2020-Jul-09 14:40 181 3 gusting 6 29.4
2020-Jul-09 14:35 191 3 gusting 6 29.4
2020-Jul-09 14:31 189 1 gusting 5 29.4
2020-Jul-09 14:25 196 2 gusting 5 28.9
2020-Jul-09 14:20 196 0 gusting 5 28.9
2020-Jul-09 14:15 198 2 gusting 5 28.3
2020-Jul-09 14:10 237 2 gusting 6 28.3
2020-Jul-09 14:01 256 0 gusting 5 28.9
2020-Jul-09 13:55 257 0 gusting 5 28.9
2020-Jul-09 13:45 237 0 gusting 7 28.9
2020-Jul-09 13:40 231 1 gusting 6 28.9
2020-Jul-09 13:35 274 1 gusting 6 28.3
2020-Jul-09 13:25 280 2 gusting 6 28.3
2020-Jul-09 13:20 215 2 gusting 5 28.3
2020-Jul-09 13:15 260 2 gusting 6 28.3
2020-Jul-09 13:10 248 1 gusting 7 27.8
2020-Jul-09 13:05 268 3 gusting 7 27.8
2020-Jul-09 13:00 244 4 gusting 7 27.8
2020-Jul-09 12:55 215 3 gusting 7 27.8
2020-Jul-09 12:46 243 1 gusting 6 27.2
2020-Jul-09 12:41 251 1 gusting 6 27.2
2020-Jul-09 12:35 234 1 gusting 6 26.7
2020-Jul-09 12:31 264 3 gusting 6 26.7
2020-Jul-09 12:26 240 2 gusting 6 26.7
2020-Jul-09 12:20 233 3 gusting 7 26.1
2020-Jul-09 12:17 233 3 gusting 6 26.1
2020-Jul-09 12:11 248 2 gusting 6 26.1
2020-Jul-09 12:05 243 2 gusting 6 26.1
2020-Jul-09 12:01 256 3 gusting 7 25.6
2020-Jul-09 11:55 235 6 gusting 8 25.6
2020-Jul-09 11:50 237 5 gusting 8 25.6
2020-Jul-09 11:47 231 3 gusting 6 25.6
2020-Jul-09 11:40 240 4 gusting 6 25.0
2020-Jul-09 11:35 251 3 gusting 7 25.0
2020-Jul-09 11:31 243 5 gusting 8 25.0
2020-Jul-09 11:25 254 3 gusting 8 24.4
2020-Jul-09 11:20 256 5 gusting 8 24.4
2020-Jul-09 11:16 275 5 gusting 7 24.4
2020-Jul-09 11:10 275 3 gusting 8 24.4
2020-Jul-09 11:05 231 4 gusting 8 23.9
2020-Jul-09 11:00 271 3 gusting 11 23.9
2020-Jul-09 10:55 244 6 gusting 11 23.9
2020-Jul-09 10:50 256 6 gusting 8 23.9
2020-Jul-09 10:45 227 4 gusting 7 23.3
2020-Jul-09 10:40 238 3 gusting 7 23.3
2020-Jul-09 10:35 244 3 gusting 7 23.3
2020-Jul-09 10:31 229 3 gusting 6 23.3
2020-Jul-09 10:25 229 3 gusting 6 23.3
2020-Jul-09 10:20 234 2 gusting 6 23.3
2020-Jul-09 10:15 235 2 gusting 6 23.3
2020-Jul-09 10:10 233 4 gusting 6 22.8
2020-Jul-09 10:05 233 3 gusting 6 22.8
2020-Jul-09 10:00 230 2 gusting 6 22.8
2020-Jul-09 09:55 243 2 gusting 6 22.8
2020-Jul-09 09:50 232 3 gusting 7 22.8
2020-Jul-09 09:46 231 3 gusting 8 22.8
2020-Jul-09 09:40 239 5 gusting 8 22.8
2020-Jul-09 09:35 248 5 gusting 9 22.8
2020-Jul-09 09:30 240 6 gusting 9 22.8
2020-Jul-09 09:25 212 4 gusting 9 22.8
2020-Jul-09 09:15 235 5 gusting 9 22.8
2020-Jul-09 09:10 227 6 gusting 9 22.8
2020-Jul-09 09:05 219 6 gusting 8 22.8
2020-Jul-09 08:55 223 5 gusting 8 22.8
2020-Jul-09 08:50 219 4 gusting 12 22.8
2020-Jul-09 08:40 227 4 gusting 9 22.8
2020-Jul-09 08:35 239 6 gusting 10 22.8
2020-Jul-09 08:25 218 5 gusting 9 22.8
2020-Jul-09 08:15 240 5 gusting 8 22.8
2020-Jul-09 08:10 238 5 gusting 13 22.8
2020-Jul-09 08:00 238 6 gusting 9 22.8
2020-Jul-09 07:55 248 5 gusting 13 22.8
2020-Jul-09 07:50 220 6 gusting 13 22.8
2020-Jul-09 07:45 240 6 gusting 8 22.8
2020-Jul-09 07:35 223 6 gusting 11 22.8
2020-Jul-09 07:25 231 4 gusting 8 22.8
2020-Jul-09 07:20 226 5 gusting 8 22.8
2020-Jul-09 07:15 236 5 gusting 8 22.8
2020-Jul-09 07:10 234 5 gusting 9 22.8
2020-Jul-09 07:05 255 5 gusting 9 22.8
2020-Jul-09 07:00 245 3 gusting 8 22.8
2020-Jul-09 06:55 230 4 gusting 7 22.8
2020-Jul-09 06:50 239 3 gusting 7 22.8
2020-Jul-09 06:45 230 3 gusting 7 22.8
2020-Jul-09 06:40 221 4 gusting 6 22.8
2020-Jul-09 06:35 217 3 gusting 6 22.8
2020-Jul-09 06:30 206 3 gusting 7 22.8
2020-Jul-09 06:25 223 3 gusting 9 22.8
2020-Jul-09 06:20 225 6 gusting 9 22.8
2020-Jul-09 06:10 232 7 gusting 10 22.8
2020-Jul-09 06:05 223 7 gusting 10 22.8
2020-Jul-09 05:55 239 7 gusting 12 22.8
2020-Jul-09 05:46 237 6 gusting 11 22.8
2020-Jul-09 05:40 233 6 gusting 8 23.3
2020-Jul-09 05:36 236 6 gusting 9 23.3
2020-Jul-09 05:33 208 5 gusting 8 23.3
2020-Jul-09 05:25 223 5 gusting 8 23.3
2020-Jul-09 05:20 218 2 gusting 7 23.3
2020-Jul-09 05:17 202 4 gusting 6 23.3
2020-Jul-09 05:10 197 3 gusting 6 23.3
2020-Jul-09 05:05 204 3 gusting 6 23.3
2020-Jul-09 05:01 204 3 gusting 6 23.3
2020-Jul-09 04:55 208 3 gusting 5 23.3
2020-Jul-09 04:51 210 2 gusting 5 23.3
2020-Jul-09 04:46 213 2 gusting 5 23.3
2020-Jul-09 04:40 215 2 gusting 6 23.3
2020-Jul-09 04:36 213 3 gusting 5 23.3
2020-Jul-09 04:31 215 1 gusting 5 23.3
2020-Jul-09 04:25 215 2 gusting 5 23.3
2020-Jul-09 04:20 212 1 gusting 5 23.3
2020-Jul-09 04:16 209 2 gusting 5 23.9
2020-Jul-09 04:11 222 1 gusting 4 23.9
2020-Jul-09 04:06 222 1 gusting 3 23.9
2020-Jul-09 04:01 222 0 gusting 2 23.9
2020-Jul-09 03:55 222 0 gusting 2 23.9
2020-Jul-09 03:51 222 0 gusting 2 23.9
2020-Jul-09 03:46 222 0 gusting 2 23.9
2020-Jul-09 03:40 222 23.9
2020-Jul-09 03:35 222 0 gusting 4 23.9
2020-Jul-09 03:31 222 1 gusting 4 23.9
2020-Jul-09 03:25 222 23.9
2020-Jul-09 03:21 222 23.9
2020-Jul-09 03:16 223 24.4
2020-Jul-09 03:10 223 1 gusting 4 24.4
2020-Jul-09 03:05 223 0 gusting 4 24.4
2020-Jul-09 03:01 223 1 gusting 5 24.4
2020-Jul-09 02:55 221 2 gusting 8 24.4
2020-Jul-09 02:51 231 4 gusting 8 24.4
2020-Jul-09 02:46 225 6 gusting 8 24.4
2020-Jul-09 02:41 229 5 gusting 8 24.4
2020-Jul-09 02:35 213 5 gusting 7 25.0
2020-Jul-09 02:30 227 5 gusting 9 25.0
2020-Jul-09 02:25 224 3 gusting 9 25.0
2020-Jul-09 02:20 217 3 gusting 6 25.0
2020-Jul-09 02:16 217 3 gusting 5 25.6
2020-Jul-09 02:10 217 2 gusting 8 25.6
2020-Jul-09 02:05 210 3 gusting 9 25.6
2020-Jul-09 02:01 212 3 gusting 8 25.6
2020-Jul-09 01:56 229 3 gusting 7 25.6
2020-Jul-09 01:51 242 2 gusting 10 26.1
2020-Jul-09 01:46 230 6 gusting 10 26.1
2020-Jul-09 01:40 233 5 gusting 10 26.1
2020-Jul-09 01:35 253 5 gusting 10 26.1
2020-Jul-09 01:30 234 6 gusting 10 26.1
2020-Jul-09 01:25 233 6 gusting 11 26.1
2020-Jul-09 01:20 234 5 gusting 9 26.1
2020-Jul-09 01:16 226 6 gusting 13 26.1
2020-Jul-09 01:11 246 4 gusting 13 26.1
2020-Jul-09 01:05 225 5 gusting 9 26.1
2020-Jul-09 01:01 252 5 gusting 8 26.1
2020-Jul-09 00:55 262 4 gusting 9 26.1
2020-Jul-09 00:50 229 6 gusting 13 26.1
2020-Jul-09 00:46 248 6 gusting 13 26.1
2020-Jul-09 00:40 223 6 gusting 11 26.7
2020-Jul-09 00:35 224 6 gusting 11 26.7
2020-Jul-09 00:31 245 4 gusting 8 26.7
2020-Jul-09 00:25 211 6 gusting 10 26.7
2020-Jul-09 00:20 240 6 gusting 10 26.7
2020-Jul-09 00:16 240 4 gusting 10 26.7
2020-Jul-09 00:11 223 6 gusting 10 26.7
2020-Jul-09 00:05 252 5 gusting 12 26.7
2020-Jul-09 00:01 227 7 gusting 12 26.7
2020-Jul-08 23:55 233 7 gusting 13 26.7
2020-Jul-08 23:50 255 8 gusting 14 27.2
2020-Jul-08 23:46 250 6 gusting 15 27.2
2020-Jul-08 23:40 230 10 gusting 15 27.2
2020-Jul-08 23:35 249 8 gusting 13 27.2
2020-Jul-08 23:31 246 7 gusting 13 27.2
2020-Jul-08 23:25 242 8 gusting 16 27.2
2020-Jul-08 23:20 202 8 gusting 16 27.2
2020-Jul-08 23:15 250 7 gusting 19 27.2
2020-Jul-08 23:10 237 9 gusting 15 27.2
2020-Jul-08 23:05 257 8 gusting 15 27.8
2020-Jul-08 23:01 237 8 gusting 16 27.8
2020-Jul-08 22:55 251 7 gusting 18 27.8
2020-Jul-08 22:50 248 10 gusting 18 27.8
2020-Jul-08 22:46 228 7 gusting 19 27.8
2020-Jul-08 22:40 237 13 gusting 19 28.3
2020-Jul-08 22:35 262 12 gusting 21 28.3
2020-Jul-08 22:30 245 10 gusting 21 28.3
2020-Jul-08 22:25 237 8 gusting 18 28.3
2020-Jul-08 22:20 235 9 gusting 13 28.3
2020-Jul-08 22:15 244 6 gusting 19 28.3
2020-Jul-08 22:10 250 10 gusting 19 28.3
2020-Jul-08 22:05 258 7 gusting 18 28.3
2020-Jul-08 22:00 223 11 gusting 18 28.3